Content
SEND FEEDBACK

Daily
Averages
Monthly
Summary
Canada

DRUMHELLER, ALBERTA


Home > North America > Canada > Alberta
Elevation: 2254 feet     Latitude: 51 28N     Longitude: 112 43W

WEATHER
 
SELECT A DAY
Number of Records: 138,090;   Date Range: 1/1/95 - 8/27/14
 
SHARE

PRINT THIS DATA

[ ← Previous Day ]
WEATHER ALMANAC - JANUARY 20, 2014
[ Next Day → ]
[ °C ]   °F
Weather ElementAverageHighLow
Temperature17 °F25.7 °F (1:00 am)9.7 °F (9:00 pm)
Dewpoint12.2 °F18.5 °F (3:00 pm)7.3 °F (6:00 am)
Humidity80.9 %96 % (8:00 pm)67 % (1:00 am)
Barometer30.31 in30.43 in (7:00 am)30.20 in (7:00 pm)
Wind Speed4.6 mph8.1 mph (11:00 am)
Weather ElementAverage
Wind DirectionS (174.8 °)

Weather ElementTotal
Precipitation---
Heating Degree Days47.3 (Base 65)
Averaged from 27 records on January 20, 2014
WEATHER CONDITIONS BREAKOUT
WIND DIRECTION BREAKOUT
WEATHER BY HOUR - JANUARY 20, 2014
[ °C ]   °F
Local TimeTemperatureDewpointHumidityBarometerVisibilityWind DirectionWind SpeedGust SpeedPrecipitationEventsConditions
1:00 AM25.7 °F16.0 °F67 %30.29 inNW (310°)5.8 mph
2:00 AM22.5 °F14.4 °F71 %30.31 inNW (320°)4.6 mph
3:00 AM21.6 °F13.8 °F72 %30.33 inNW (320°)5.8 mph
4:00 AM17.2 °F11.5 °F78 %30.38 inSE (140°)4.6 mph
5:00 AM14.0 °F10.0 °F78 %30.42 inSouth (180°)2.3 mph
5:00 AM14.0 °F10.2 °F85 %30.42 inSouth (180°)2.3 mph
6:00 AM9.9 °F7.3 °F90 %30.42 inSSE (150°)2.3 mph
7:00 AM12.4 °F9.3 °F88 %30.43 inSouth (170°)6.9 mph
8:00 AM10.4 °F7.7 °F89 %30.42 inSSE (150°)5.8 mph
9:00 AM10.8 °F8.1 °F89 %30.41 inSSE (150°)6.9 mph
10:00 AM14.9 °F9.9 °F80 %30.40 inSSE (150°)4.6 mph
11:00 AM17.0 °F11.0 °F69 %30.38 inSSE (160°)8.1 mph
11:00 AM18.5 °F11.3 °F73 %30.38 inSSE (160°)8.1 mph
12:00 PM19.8 °F13.6 °F77 %30.35 inSSE (150°)8.1 mph
1:00 PM22.8 °F16.3 °F76 %30.31 inSSE (160°)5.8 mph
2:00 PM24.1 °F17.8 °F77 %30.28 inSSE (150°)5.8 mph
3:00 PM25.3 °F18.5 °F75 %30.23 inSSE (150°)5.8 mph
4:00 PM24.6 °F18.1 °F76 %30.22 inSSE (160°)6.9 mph
5:00 PM22.0 °F17.0 °F72 %30.22 inSouth (170°)5.8 mph
5:00 PM23.9 °F18.5 °F80 %30.22 inSouth (170°)5.8 mph
6:00 PM18.0 °F14.0 °F84 %30.22 inSSE (160°)5.8 mph
7:00 PM16.0 °F12.9 °F88 %30.20 inSSE (160°)3.5 mph
8:00 PM12.2 °F11.3 °F96 %30.21 inCalm
9:00 PM9.7 °F7.5 °F91 %30.24 inNNW (340°)1.2 mph
10:00 PM11.3 °F7.3 °F84 %30.24 inCalm
11:00 PM10.0 °F8.0 °F88 %30.24 inSSW (210°)1.2 mph
11:00 PM10.4 °F8.1 °F90 %30.24 inSSW (200°)1.2 mph
Hourly data recorded from CWDZ, located miles away from Drumheller, Alberta







STORIES FROM OUR PARTNERS